DW3478 Weather Reports


time (UTC)temp
C
wind
direction
speed
KPH
gust
KPH
rain 1hr
cm
rain 24hr
cm
rain mn
cm
humidity
%
barometer
mb
20180619233809 18 136 1.6 4.8 0.00 0.00 0.00 84 1017.3
20180619225809 17 136 1.6 9.7 0.00 0.00 0.00 83 1016.9
20180619223809 18 136 3.2 4.8 0.00 0.00 0.00 84 1017.0
20180619222809 18 136 1.6 8.0 0.00 0.00 0.00 82 1016.8
20180619220810 18 136 1.6 4.8 0.00 0.00 0.00 83 1016.6
20180619215809 18 136 0.0 3.2 0.00 0.00 0.00 81 1016.6
20180619214809 18 136 0.0 4.8 0.00 0.00 0.00 81 1016.7
20180619212809 18 136 1.6 4.8 0.00 0.00 0.00 82 1016.7
20180619211809 18 136 3.2 4.8 0.00 0.00 0.00 82 1016.6
20180619210809 18 136 1.6 4.8 0.00 0.00 0.00 82 1016.7
20180619205809 18 136 1.6 4.8 0.00 0.00 0.00 82 1016.5
20180619204810 18 136 1.6 4.8 0.00 0.00 0.00 82 1016.5
20180619203810 18 136 1.6 4.8 0.00 0.00 0.00 82 1016.5
20180619201809 18 136 3.2 8.0 0.00 0.00 0.00 81 1016.6
20180619195810 18 136 1.6 4.8 0.00 0.00 0.00 81 1016.4
20180619193810 18 136 1.6 4.8 0.00 0.00 0.00 81 1016.4
20180619192809 18 136 1.6 4.8 0.00 0.00 0.00 80 1016.3
20180619190810 18 136 4.8 11.3 0.00 0.00 0.00 80 1016.3
20180619184809 18 136 8.0 16.1 0.00 0.00 0.00 80 1016.3
20180619181809 19 136 9.7 19.3 0.00 0.00 0.00 82 1016.2
20180619180809 19 136 9.7 20.9 0.00 0.00 0.00 80 1016.2
20180619175809 20 136 11.3 24.1 0.00 0.00 0.00 77 1016.1
20180619173809 20 134 9.7 20.9 0.00 0.00 0.00 74 1016.1
20180619172809 21 135 12.9 19.3 0.00 0.00 0.00 73 1015.8
20180619171809 21 129 11.3 20.9 0.00 0.00 0.00 72 1016.0
20180619161809 21 171 11.3 20.9 0.00 0.00 0.00 73 1015.8
20180619160809 21 198 14.5 19.3 0.00 0.00 0.00 71 1015.9
20180619155809 21 207 8.0 19.3 0.00 0.00 0.00 72 1015.9
20180619154809 21 210 9.7 19.3 0.00 0.00 0.00 71 1016.0
20180619151809 21 211 8.0 19.3 0.00 0.00 0.00 72 1016.0
20180619150809 21 211 8.0 16.1 0.00 0.00 0.00 71 1016.1
20180619145809 21 211 9.7 16.1 0.00 0.00 0.00 72 1016.3
20180619144809 21 211 6.4 14.5 0.00 0.00 0.00 74 1016.3
20180619141810 21 211 9.7 16.1 0.00 0.00 0.00 73 1016.5
20180619135809 21 211 11.3 19.3 0.00 0.00 0.00 73 1016.5
20180619133809 21 211 8.0 20.9 0.00 0.00 0.00 70 1016.7
20180619132810 20 211 16.1 24.1 0.00 0.00 0.00 70 1016.8
20180619131814 21 168 9.7 22.5 0.00 0.00 0.00 71 1016.8
20180619130809 20 150 14.5 20.9 0.00 0.00 0.00 71 1016.9
20180619125809 20 150 11.3 19.3 0.00 0.00 0.00 70 1016.8
20180619123809 20 150 11.3 19.3 0.00 0.00 0.00 72 1016.9
20180619121810 20 150 9.7 19.3 0.00 0.00 0.00 73 1017.1
20180619120809 20 150 9.7 19.3 0.00 0.00 0.00 73 1017.3
20180619115810 20 150 6.4 9.7 0.00 0.00 0.00 74 1017.3
20180619114809 19 150 8.0 11.3 0.00 0.00 0.00 76 1017.7
20180619112809 18 150 4.8 9.7 0.00 0.00 0.00 77 1017.8
20180619111818 18 150 3.2 9.7 0.00 0.00 0.00 78 1017.7
20180619110809 18 150 3.2 8.0 0.00 0.00 0.00 79 1017.7
20180619105809 18 150 3.2 4.8 0.00 0.00 0.00 79 1017.6
20180619104809 18 150 3.2 4.8 0.00 0.00 0.00 80 1017.7
20180619103809 18 150 3.2 4.8 0.00 0.00 0.00 82 1017.7
20180619102809 18 150 3.2 4.8 0.00 0.00 0.00 83 1017.7
20180619100810 18 150 4.8 8.0 0.00 0.00 0.00 87 1017.6
20180619093809 17 150 3.2 4.8 0.00 0.00 0.00 88 1017.6
20180619092810 17 150 0.0 4.8 0.00 0.00 0.00 88 1017.6
20180619090810 17 150 3.2 4.8 0.00 0.00 0.00 88 1017.6
20180619085811 17 150 0.0 4.8 0.00 0.00 0.00 89 1017.7
20180619084809 17 150 1.6 4.8 0.00 0.00 0.00 90 1017.7
20180619083809 17 150 0.0 4.8 0.00 0.00 0.00 90 1017.7
20180619082810 17 150 1.6 4.8 0.00 0.00 0.00 91 1017.5
20180619081809 17 150 0.0 4.8 0.00 0.00 0.00 91 1017.5
20180619080810 17 150 3.2 4.8 0.00 0.00 0.00 91 1017.3
20180619075810 17 150 0.0 4.8 0.00 0.00 0.00 91 1017.4
20180619074810 17 150 0.0 1.6 0.00 0.00 0.00 91 1017.3
20180619073809 17 150 0.0 0.0 0.00 0.00 0.00 91 1017.2
20180619072809 17 150 0.0 4.8 0.00 0.00 0.00 92 1017.2
20180619071809 17 150 3.2 8.0 0.00 0.00 0.00 91 1017.1
20180619065810 17 150 4.8 11.3 0.00 0.00 0.00 90 1017.1
20180619063809 17 150 1.6 4.8 0.00 0.00 0.00 88 1017.0
20180619061810 17 150 3.2 4.8 0.00 0.00 0.00 88 1017.0
20180619060809 17 150 0.0 3.2 0.00 0.00 0.00 88 1017.1
20180619055809 17 150 1.6 4.8 0.00 0.00 0.00 88 1017.1
20180619054809 17 150 0.0 4.8 0.00 0.00 0.00 88 1017.0
20180619051809 17 150 1.6 4.8 0.00 0.00 0.00 87 1016.9
20180619044809 17 150 1.6 4.8 0.00 0.00 0.00 87 1016.9
20180619043809 17 150 0.0 0.0 0.00 0.00 0.00 86 1017.0
20180619042809 17 150 0.0 1.6 0.00 0.00 0.00 87 1016.9
20180619041809 17 150 0.0 4.8 0.00 0.00 0.00 87 1016.9
20180619040809 17 150 0.0 1.6 0.00 0.00 0.00 87 1016.8
20180619035809 17 150 0.0 4.8 0.00 0.00 0.00 86 1016.9
20180619034809 17 150 1.6 3.2 0.00 0.00 0.00 86 1016.8
20180619032809 17 150 0.0 0.0 0.00 0.00 0.00 86 1016.8
20180619031809 17 150 0.0 0.0 0.00 0.00 0.00 87 1016.8
20180619030809 17 150 0.0 0.0 0.00 0.00 0.00 86 1016.8
20180619023810 17 150 0.0 3.2 0.00 0.00 0.00 85 1016.9
20180619022809 17 150 0.0 4.8 0.00 0.00 0.00 85 1016.6
20180619021809 17 150 4.8 8.0 0.00 0.00 0.00 85 1016.5
20180619020809 17 150 3.2 8.0 0.00 0.00 0.00 85 1016.5
20180619015809 17 150 3.2 9.7 0.00 0.00 0.00 85 1016.6
20180619014810 17 150 3.2 4.8 0.00 0.00 0.00 84 1016.6
20180619013810 17 150 3.2 4.8 0.00 0.00 0.00 84 1016.7
20180619012809 17 150 1.6 4.8 0.00 0.00 0.00 84 1016.7
20180619011809 17 150 3.2 4.8 0.00 0.00 0.00 84 1016.8
20180619005809 17 150 1.6 4.8 0.00 0.00 0.00 85 1016.9
20180619003809 17 150 3.2 4.8 0.00 0.00 0.00 85 1017.2
20180619002809 17 150 3.2 4.8 0.00 0.00 0.00 86 1017.1
20180619001809 17 150 0.0 0.0 0.00 0.00 0.00 86 1017.3
20180619000810 17 150 0.0 1.6 0.00 0.00 0.00 86 1017.5
20180618235810 18 150 0.0 1.6 0.00 0.00 0.00 85 1017.7